When you browse on this site, cookies collect data to enhance your experience and personalize the content and advertising you see.
Visit our Privacy Policy to learn more. By continuing to use the site, you agree to this use of cookies and data.
  • In Hungary
  • List of Countries
  • For 7 days
  • Water Temperature
  • Satellite Maps
  • Weather Map
  • News
  • Weather Widgets
  • user-avatar
    Login

    Hourly Weather Kuzhnik

    Today, 18 November, Sunday

    Time Temperature Precipitation Wind Pressure Humidity
    00:00 +2°C° 0 mm 2 mps 663 mmHg 73%
    01:00 +2°C° 0 mm 2 mps 663 mmHg 71%
    02:00 +2°C° 0 mm 2 mps 663 mmHg 69%
    03:00 +2°C° 0 mm 2 mps 662 mmHg 66%
    04:00 +1°C° 0 mm 2 mps 662 mmHg 67%
    05:00 +1°C° 0 mm 2 mps 662 mmHg 68%
    06:00 +1°C° 0 mm 2 mps 662 mmHg 70%
    07:00 +2°C° 0 mm 2 mps 662 mmHg 66%
    08:00 +4°C° 0 mm 1 mps 662 mmHg 62%
    09:00 +5°C° 0 mm 1 mps 663 mmHg 57%
    10:00 +4°C° 0 mm 2 mps 663 mmHg 57%
    11:00 +5°C° 0 mm 2 mps 662 mmHg 57%
    12:00 +6°C° 0 mm 2 mps 662 mmHg 56%
    13:00 +5°C° 0 mm 2 mps 662 mmHg 61%
    14:00 +5°C° 0 mm 2 mps 662 mmHg 65%
    15:00 +4°C° 0 mm 2 mps 662 mmHg 69%
    16:00 +4°C° 0 mm 1 mps 662 mmHg 74%
    17:00 +4°C° 0 mm 1 mps 662 mmHg 79%
    18:00 +3°C° 0 mm 1 mps 662 mmHg 85%
    19:00 +3°C° 0 mm 1 mps 662 mmHg 82%
    20:00 +2°C° 0 mm 1 mps 662 mmHg 80%
    21:00 +2°C° 0 mm 1 mps 662 mmHg 77%
    22:00 +2°C° 0 mm 1 mps 662 mmHg 75%
    23:00 +2°C° 0 mm 1 mps 662 mmHg 72%

    Tomorrow, 19 November, Monday

    Time Temperature Precipitation Wind Pressure Humidity
    00:00 +2°C° 0 mm 1 mps 662 mmHg 69%
    01:00 +2°C° 0 mm 1 mps 662 mmHg 69%
    02:00 +2°C° 0 mm 1 mps 662 mmHg 68%
    03:00 +1°C° 0 mm 1 mps 662 mmHg 68%
    04:00 +1°C° 0 mm 1 mps 662 mmHg 67%
    05:00 +1°C° 0 mm 1 mps 662 mmHg 67%
    06:00 +1°C° 0 mm 1 mps 662 mmHg 67%
    07:00 +2°C° 0 mm 1 mps 663 mmHg 63%
    08:00 +3°C° 0 mm 1 mps 663 mmHg 59%
    09:00 +4°C° 0 mm 1 mps 664 mmHg 55%
    10:00 +5°C° 0 mm 1 mps 664 mmHg 54%
    11:00 +6°C° 0 mm 1 mps 664 mmHg 54%
    12:00 +5°C° 0 mm 2 mps 664 mmHg 53%
    13:00 +6°C° 0 mm 1 mps 663 mmHg 57%
    14:00 +6°C° 0 mm 1 mps 663 mmHg 61%
    15:00 +6°C° 0 mm 1 mps 663 mmHg 64%
    16:00 +5°C° 0 mm 1 mps 663 mmHg 66%
    17:00 +4°C° 0 mm 1 mps 663 mmHg 67%
    18:00 +3°C° 0 mm 1 mps 663 mmHg 69%
    19:00 +2°C° 0 mm 2 mps 663 mmHg 65%
    20:00 +2°C° 0 mm 2 mps 663 mmHg 61%
    21:00 +2°C° 0 mm 2 mps 663 mmHg 58%
    22:00 +2°C° 0 mm 2 mps 663 mmHg 55%
    23:00 +1°C° 0 mm 3 mps 662 mmHg 52%

    Day after tomorrow, 20 November, Tuesday

    Time Temperature Precipitation Wind Pressure Humidity
    00:00 +1°C° 0 mm 3 mps 662 mmHg 49%
    01:00 +1°C° 0 mm 3 mps 662 mmHg 48%
    02:00 +1°C° 0 mm 3 mps 662 mmHg 46%
    03:00 +1°C° 0 mm 3 mps 661 mmHg 44%
    04:00 +2°C° 0 mm 3 mps 661 mmHg 43%
    05:00 +2°C° 0 mm 3 mps 661 mmHg 43%
    06:00 +2°C° 0 mm 3 mps 660 mmHg 43%
    07:00 +5°C° 0 mm 2 mps 661 mmHg 42%
    08:00 +6°C° 0 mm 2 mps 661 mmHg 42%
    09:00 +7°C° 0 mm 2 mps 661 mmHg 41%
    10:00 +8°C° 0 mm 2 mps 661 mmHg 43%
    11:00 +9°C° 0 mm 2 mps 661 mmHg 44%
    12:00 +10°C° 0 mm 2 mps 660 mmHg 46%
    13:00 +11°C° 0 mm 1 mps 660 mmHg 49%
    14:00 +10°C° 0 mm 1 mps 659 mmHg 53%
    15:00 +10°C° 0 mm 1 mps 659 mmHg 57%
    16:00 +8°C° 0 mm 2 mps 659 mmHg 59%
    17:00 +7°C° 0 mm 2 mps 659 mmHg 61%
    18:00 +6°C° 0 mm 2 mps 659 mmHg 63%
    19:00 +6°C° 0 mm 2 mps 659 mmHg 64%
    20:00 +6°C° 0 mm 2 mps 658 mmHg 64%
    21:00 +6°C° 0 mm 2 mps 658 mmHg 65%
    22:00 +5°C° 0 mm 2 mps 658 mmHg 65%
    23:00 +5°C° 0 mm 2 mps 658 mmHg 64%

    21 November, Wednesday

    Time Temperature Precipitation Wind Pressure Humidity
    00:00 +5°C° 0 mm 2 mps 658 mmHg 63%
    01:00 +4°C° 0 mm 3 mps 658 mmHg 65%
    02:00 +4°C° 0 mm 3 mps 657 mmHg 67%
    03:00 +3°C° 0 mm 3 mps 657 mmHg 69%
    04:00 +3°C° 0.1 mm 3 mps 657 mmHg 70%
    05:00 +3°C° 0.1 mm 3 mps 658 mmHg 71%
    06:00 +2°C° 0.1 mm 3 mps 658 mmHg 73%
    07:00 +3°C° 0.1 mm 3 mps 658 mmHg 72%
    08:00 +4°C° 0.1 mm 3 mps 659 mmHg 71%
    09:00 +4°C° 0.1 mm 4 mps 659 mmHg 70%
    10:00 +5°C° 0 mm 3 mps 659 mmHg 68%
    11:00 +5°C° 0 mm 3 mps 659 mmHg 67%
    12:00 +7°C° 0 mm 3 mps 659 mmHg 65%
    13:00 +7°C° 0 mm 3 mps 659 mmHg 67%
    14:00 +5°C° 0 mm 3 mps 659 mmHg 69%
    15:00 +5°C° 0 mm 3 mps 659 mmHg 71%
    16:00 +4°C° 0 mm 3 mps 659 mmHg 76%
    17:00 +3°C° 0 mm 3 mps 659 mmHg 81%
    18:00 +3°C° 0 mm 2 mps 659 mmHg 86%
    19:00 +2°C° 0 mm 3 mps 659 mmHg 85%
    20:00 +2°C° 0 mm 3 mps 659 mmHg 84%
    21:00 +2°C° 0 mm 3 mps 660 mmHg 84%
    22:00 +1°C° 0 mm 3 mps 660 mmHg 83%
    23:00 +2°C° 0 mm 2 mps 659 mmHg 82%

    22 November, Thursday

    Time Temperature Precipitation Wind Pressure Humidity
    00:00 +2°C° 0 mm 2 mps 659 mmHg 81%
    01:00 +2°C° 0 mm 2 mps 659 mmHg 81%
    02:00 +2°C° 0 mm 2 mps 659 mmHg 81%
    03:00 +2°C° 0 mm 2 mps 659 mmHg 81%
    04:00 +2°C° 0 mm 2 mps 659 mmHg 82%
    05:00 +2°C° 0 mm 1 mps 659 mmHg 82%
    06:00 +2°C° 0 mm 1 mps 658 mmHg 83%
    07:00 +3°C° 0 mm 1 mps 659 mmHg 79%
    08:00 +4°C° 0 mm 1 mps 659 mmHg 76%
    09:00 +4°C° 0 mm 2 mps 659 mmHg 72%
    10:00 +5°C° 0 mm 2 mps 659 mmHg 71%
    11:00 +5°C° 0 mm 2 mps 659 mmHg 70%
    12:00 +6°C° 0 mm 2 mps 659 mmHg 69%
    13:00 +5°C° 0 mm 2 mps 658 mmHg 72%
    14:00 +5°C° 0 mm 2 mps 658 mmHg 76%
    15:00 +5°C° 0 mm 2 mps 658 mmHg 79%
    16:00 +4°C° 0 mm 2 mps 658 mmHg 82%
    17:00 +4°C° 0 mm 1 mps 658 mmHg 85%
    18:00 +4°C° 0 mm 1 mps 658 mmHg 89%
    19:00 +4°C° 0 mm 1 mps 658 mmHg 87%
    20:00 +4°C° 0 mm 1 mps 658 mmHg 86%
    21:00 +3°C° 0 mm 1 mps 658 mmHg 85%
    22:00 +3°C° 0 mm 1 mps 658 mmHg 85%
    23:00 +2°C° 0 mm 2 mps 658 mmHg 85%

    23 November, Friday

    Time Temperature Precipitation Wind Pressure Humidity
    00:00 +2°C° 0 mm 2 mps 658 mmHg 84%
    01:00 +2°C° 0 mm 2 mps 658 mmHg 85%
    02:00 +2°C° 0 mm 2 mps 658 mmHg 86%
    03:00 +2°C° 0 mm 2 mps 658 mmHg 87%
    04:00 +2°C° 0.1 mm 2 mps 658 mmHg 89%
    05:00 +2°C° 0.1 mm 2 mps 658 mmHg 90%
    06:00 +2°C° 0.1 mm 2 mps 658 mmHg 91%
    07:00 +1°C° 0.1 mm 3 mps 659 mmHg 88%
    08:00 +1°C° 0.1 mm 3 mps 660 mmHg 86%
    09:00 +1°C° 0.1 mm 3 mps 660 mmHg 84%
    10:00 +2°C° 0.1 mm 3 mps 660 mmHg 82%
    11:00 +2°C° 0.1 mm 3 mps 661 mmHg 81%
    12:00 +2°C° 0.1 mm 3 mps 661 mmHg 80%
    13:00 +2°C° 0.2 mm 3 mps 661 mmHg 81%
    14:00 +1°C° 0.2 mm 3 mps 661 mmHg 83%
    15:00 +1°C° 0.2 mm 3 mps 662 mmHg 85%
    16:00 0°C° 0.1 mm 3 mps 662 mmHg 86%
    17:00 0°C° 0.1 mm 3 mps 663 mmHg 87%
    18:00 -1°C° 0.1 mm 3 mps 663 mmHg 88%
    19:00 -1°C° 0 mm 2 mps 664 mmHg 87%
    20:00 -1°C° 0 mm 2 mps 664 mmHg 87%
    21:00 -1°C° 0 mm 2 mps 664 mmHg 87%
    22:00 -2°C° 0 mm 2 mps 664 mmHg 87%
    23:00 0°C° 0 mm 1 mps 665 mmHg 87%
    Show more